Weather in David

Panama     8°25′00″N   82°25′24″W
temp.,
°C
wind,
m/s
gust,
m/s
humid.,
%
clouds,
%
prec.,
mm/h
press.,
hPa
HPBL,
m
16 september, thu
thu1601:00+23e0092100 0.1 101211
04:00+22nw119134 0.1 101111
07:00+23nne118916 0.1 101326
10:00+27se227415 0.4 1014731
13:00+29s327083 3.3 1012900
16:00+27ssw3379100 4.7 1010542
19:00+24w1190100 6.1 101238
22:00+24nnw009070 0.0 101311
17 september, fri
fri1701:00+23nnw00916 0.0 101211
04:00+22nne11901 0.0 101111
07:00+23n11865 0.0 101326
10:00+27s21718 0.0 1014728
13:00+30ssw426655 0.2 10121162
16:00+28ssw3377100 3.0 1010732
19:00+25ssw1191100 3.8 101234
22:00+24nw0091100 0.1 101318
18 september, sat
sat1801:00+23sw009496 0.2 101111
04:00+23wnw1194100 0.1 101019
07:00+24n119023 0.1 101243
10:00+28s217319 0.0 1013818
13:00+29ssw4369100 2.9 1011851
16:00+25ssw2388100 12.3 100959
19:00+24w1293100 15.4 101147
22:00+24n118993 0.2 101311
19 september, sun
sun1901:00+23n0089100 0.3 101111
04:00+23n0090100 0.0 101011
07:00+23nne1188100 0.0 101228
10:00+27s2175100 0.1 1013638
13:00+28ssw2275100 6.7 1011658
16:00+24wsw1291100 10.2 100989
19:00+22sse1197100 21.3 101252
22:00+22nnw1197100 9.7 101381
20 september, mon
mon2001:00+22nnw2293100 10.6 101155
04:00+23nne2283100 0.0 100925
07:00+22ssw129197 0.0 101267
10:00+26sse227744 0.3 1013796
13:00+27ssw3275100 1.9 1011700
16:00+25s2283100 4.8 1010464
19:00+23s1194100 7.3 101144
22:00+23w1195100 0.3 101343